LROP Weather Reports


time (UTC)temp
C
wind
direction
speed
KPH
gust
KPH
rain 1hr
cm
rain 24hr
cm
rain mn
cm
humidity
%
barometer
mb
20260505183302 17 150 8.0 0.0 0.00 0.00 0.00 68 1014.0
20260505181802 17 140 4.8 0.0 0.00 0.00 0.00 68 1013.0
20260505180302 17 140 4.8 0.0 0.00 0.00 0.00 68 1013.0
20260505173301 17 150 8.0 0.0 0.00 0.00 0.00 64 1013.0
20260505171802 18 210 4.8 0.0 0.00 0.00 0.00 64 1013.0
20260505170302 18 210 4.8 0.0 0.00 0.00 0.00 64 1013.0
20260505164802 20 210 8.0 0.0 0.00 0.00 0.00 60 1013.0
20260505163302 20 210 8.0 0.0 0.00 0.00 0.00 60 1013.0
20260505161802 21 230 4.8 0.0 0.00 0.00 0.00 53 1013.0
20260505160302 21 230 4.8 0.0 0.00 0.00 0.00 53 1013.0
20260505153302 22 1.6 0.0 0.00 0.00 0.00 53 1013.0
20260505151810 22 3.2 0.0 0.00 0.00 0.00 41 1014.0
20260505150302 22 3.2 0.0 0.00 0.00 0.00 41 1014.0
20260505140301 26 240 8.0 0.0 0.00 0.00 0.00 32 1014.0
20260505130302 25 8.0 0.0 0.00 0.00 0.00 34 1014.0
20260505124802 23 180 4.8 0.0 0.00 0.00 0.00 36 1014.0
20260505123302 23 180 4.8 0.0 0.00 0.00 0.00 36 1014.0
20260505121802 23 250 11.3 0.0 0.00 0.00 0.00 39 1014.0
20260505120305 25 4.8 0.0 0.00 0.00 0.00 36 1015.0
20260505114809 25 4.8 0.0 0.00 0.00 0.00 36 1015.0
20260505113332 25 4.8 0.0 0.00 0.00 0.00 36 1015.0
20260505111802 23 250 9.7 0.0 0.00 0.00 0.00 39 1015.0
20260505110302 23 250 9.7 0.0 0.00 0.00 0.00 39 1015.0
20260505101803 22 4.8 0.0 0.00 0.00 0.00 38 1015.0
20260505100302 22 4.8 0.0 0.00 0.00 0.00 38 1015.0
20260505094803 22 8.0 0.0 0.00 0.00 0.00 41 1015.0
20260505093302 22 8.0 0.0 0.00 0.00 0.00 41 1015.0
20260505091802 22 230 4.8 0.0 0.00 0.00 0.00 44 1016.0
20260505090302 22 230 4.8 0.0 0.00 0.00 0.00 44 1016.0
20260505084802 22 4.8 0.0 0.00 0.00 0.00 44 1016.0
20260505083302 22 4.8 0.0 0.00 0.00 0.00 44 1016.0
20260505081802 20 120 4.8 0.0 0.00 0.00 0.00 53 1016.0
20260505080302 20 120 4.8 0.0 0.00 0.00 0.00 53 1016.0
20260505074815 18 3.2 0.0 0.00 0.00 0.00 60 1016.0
20260505073302 18 3.2 0.0 0.00 0.00 0.00 60 1016.0
20260505071802 17 1.6 0.0 0.00 0.00 0.00 60 1016.0
20260505070302 17 1.6 0.0 0.00 0.00 0.00 60 1016.0
20260505064802 17 90 4.8 0.0 0.00 0.00 0.00 64 1016.0
20260505063302 17 90 4.8 0.0 0.00 0.00 0.00 64 1016.0
20260505061802 16 3.2 0.0 0.00 0.00 0.00 68 1016.0
20260505060302 16 3.2 0.0 0.00 0.00 0.00 68 1016.0
20260505054802 16 1.6 0.0 0.00 0.00 0.00 63 1016.0
20260505053302 16 1.6 0.0 0.00 0.00 0.00 63 1016.0
20260505051802 12 20 4.8 0.0 0.00 0.00 0.00 77 1016.0
20260505050302 12 20 4.8 0.0 0.00 0.00 0.00 77 1016.0
20260505040301 10 3.2 0.0 0.00 0.00 0.00 88 1015.0
20260505034802 8 350 4.8 0.0 0.00 0.00 0.00 94 1015.0
20260505033302 8 350 4.8 0.0 0.00 0.00 0.00 94 1015.0
20260505031802 7 1.6 0.0 0.00 0.00 0.00 93 1015.0
20260505030302 7 1.6 0.0 0.00 0.00 0.00 93 1015.0
20260505024802 8 350 4.8 0.0 0.00 0.00 0.00 94 1015.0
20260505023302 8 350 4.8 0.0 0.00 0.00 0.00 94 1015.0
20260505021802 7 3.2 0.0 0.00 0.00 0.00 93 1015.0
20260505020302 7 3.2 0.0 0.00 0.00 0.00 93 1015.0
20260505014801 8 30 3.2 0.0 0.00 0.00 0.00 94 1015.0
20260505013302 8 30 3.2 0.0 0.00 0.00 0.00 94 1015.0
20260505011802 8 70 4.8 0.0 0.00 0.00 0.00 87 1015.0
20260505010302 8 70 4.8 0.0 0.00 0.00 0.00 87 1015.0
20260505004802 10 3.2 0.0 0.00 0.00 0.00 88 1015.0
20260505003302 10 3.2 0.0 0.00 0.00 0.00 88 1015.0
20260505001802 11 30 4.8 0.0 0.00 0.00 0.00 82 1015.0
20260505000302 11 30 4.8 0.0 0.00 0.00 0.00 82 1015.0
20260504234802 11 30 1.6 0.0 0.00 0.00 0.00 82 1015.0
20260504233302 11 30 1.6 0.0 0.00 0.00 0.00 82 1015.0
20260504231802 11 3.2 0.0 0.00 0.00 0.00 82 1015.0
20260504230302 11 3.2 0.0 0.00 0.00 0.00 82 1015.0
20260504224801 12 3.2 0.0 0.00 0.00 0.00 77 1015.0
20260504223302 12 3.2 0.0 0.00 0.00 0.00 77 1015.0
20260504221825 12 40 8.0 0.0 0.00 0.00 0.00 77 1015.0
20260504220302 12 40 8.0 0.0 0.00 0.00 0.00 77 1015.0
20260504214802 12 50 4.8 0.0 0.00 0.00 0.00 77 1015.0
20260504213318 12 50 4.8 0.0 0.00 0.00 0.00 77 1015.0
20260504211801 12 30 4.8 0.0 0.00 0.00 0.00 72 1015.0
20260504210302 12 30 4.8 0.0 0.00 0.00 0.00 72 1015.0
20260504204802 12 0 0.0 0.0 0.00 0.00 0.00 72 1015.0
20260504203303 12 0 0.0 0.0 0.00 0.00 0.00 72 1015.0
20260504201801 12 0 0.0 0.0 0.00 0.00 0.00 72 1015.0
20260504200302 12 0 0.0 0.0 0.00 0.00 0.00 72 1015.0
20260504194802 12 110 4.8 0.0 0.00 0.00 0.00 72 1015.0
20260504193302 12 110 4.8 0.0 0.00 0.00 0.00 72 1015.0
20260504191802 13 150 9.7 0.0 0.00 0.00 0.00 67 1015.0
20260504190302 13 150 9.7 0.0 0.00 0.00 0.00 67 1015.0
20260504184802 15 160 9.7 0.0 0.00 0.00 0.00 68 1015.0